Regional Weather Roundup
Issued by NWS Newport/Morehead, NC

Home | Current Version | Previous Version | Text Only | Print | Product List | Glossary On
Versions: 1 2 3 4 5 6 7 8 9 10 11 12 13 14 15 16 17 18 19 20 21 22 23 24 25 26 27 28 29 30 31 32 33 34 35 36 37 38 39 40 41 42 43 44 45 46 47 48 49 50
600
ASUS42 KMHX 250425
RWRMHX
WEATHER ROUNDUP FOR EASTERN NORTH CAROLINA
NATIONAL WEATHER SERVICE NEWPORT/MOREHEAD CITY NC
1100 PM EST SAT FEB 24 2018

NOTE: "FAIR" INDICATES FEW OR NO CLOUDS BELOW 12,000 FEET
WITH NO SIGNIFICANT WEATHER AND/OR OBSTRUCTIONS TO VISIBILITY

NCZ015>017-031-032-045>047-102-103-250500-
NORTH COAST

CITY           SKY/WX    TMP DP  RH WIND       PRES   REMARKS
EDENTON        FAIR      66  63  88 S8        30.10F
ELIZABETH CITY FAIR      65  63  93 S12       30.09F
KITTY HAWK     FAIR     N/A N/A N/A SW3       30.11R
MANTEO         FAIR      62  60  95 S12       30.12S

$$

NCZ045>047-081-094-103-104-250500-
CENTRAL COAST

CITY           SKY/WX    TMP DP  RH WIND       PRES   REMARKS
FRISCO         FAIR      64  63  96 SW10      30.15S

$$

NCZ095-097-098-100-101-250500-
SOUTHERN COAST

CITY           SKY/WX    TMP DP  RH WIND       PRES   REMARKS
BEAUFORT       FAIR      64  62  93 SW9       30.15S
CEDAR ISLAND   NOT AVBL
JACKSONVILLE   FAIR      66  64  93 SW7       30.14S
PINEY ISLAND   NOT AVBL
WILMINGTON     FAIR      67  64  90 S8        30.15R


$$

NCZ011>013-027>030-043-044-078>080-089-090>093-098-250500-
COASTAL PLAIN

CITY           SKY/WX    TMP DP  RH WIND       PRES   REMARKS
AHOSKIE        FAIR      64  60  88 S6        30.07F
CLINTON        FAIR      66  64  93 S3        30.12S
ELIZABETHTOWN  NOT AVBL
GOLDSBORO      FAIR      67  62  84 S8        30.09S
GREENVILLE     FAIR      66  61  82 SW10      30.11F
HAVELOCK       NOT AVBL
KENANSVILLE    FAIR      66  63  88 SW3       30.13S
KINSTON        FAIR      67  62  84 S13       30.12S
NEW BERN       FAIR      65  63  93 SW9       30.14S
RICHLANDS      FAIR      63  62  97 S7        30.15R
ROCKY MOUNT    FAIR      67  60  78 S7        30.08F
WASHINGTON     FAIR      66  62  86 S7        30.11F
WHITEVILLE     FAIR      64  62  91 S6        30.14R

$$

AMZ130-135-150-152-154-156-158-170-250-252-270-ANZ085-086-088-633-658-670-250500-
MARINE OBSERVATIONS

STATION/POSITION TIME  TEMP    WIND        PRES    WAVE   SWELL
                       AIR SEA DIR/SP/G            HT/PER HT/PER
                 (UTC) (F)     (DEG/KT/KT) (MB)    (FT/S) (FT/S)
CHESAPEAKE LIGHT NOT AVBL
64 E VA BEACH    0350   54 50  210/ 10/ 12 1019.8    3/ 9   2/ 9
DUCK             0400   65 47  200/ 11/ 14 1019.0
2 E DUCK         0400      48                N/A     2/11
OREGON INLET     0400   61 61  190/ 12/ 14 1020.0
13E OREGON INLT  0348      48                N/A     4/ 5   2/ 8
HATTERAS CG      0400   65 62  230/  7/ 11 1020.6
DIAMOND BUOY     0410   72 73  230/ 16/ 17 1020.9
CAPE LOOKOUT     0400          220/  8/ 10 1021.3
BEAUFORT LAB     0400   64 62  210/  5/  9 1020.9
30 SE NEW RVR IN 0308   71 69  210/ 10/ 14 1021.2
30 SE NEW RVR IN 0400      70                N/A     4/ 9   2/11
27 SE WRIGHTSVLE 0308   69 69  210/ 12/ 17 1021.2
5 SE WRIGHTSVLE  0408   61 58  220/  6/ 10 1020.7
225 S CAPE HAT   0350   72 73  190/ 12/ 14 1024.1    5/10   5/10
41 SE CHARLESTON 0410   71 71  180/ 12/ 14 1021.0

$$




USA.gov is the U.S. government's official web portal to all federal, state and local government web resources and services.